FDX45L LIME-EDDK

Flight info

Callsign FDX45L
Flight time 1h 2m
Altitude 32000
Route PEPAG N851 UTAVO DCT ROLSA DCT LADOL T163 KOVAN T844 ASKIK T840 GULKO GULKO1C
Aircraft MD11/H-SDE1E2E3FGHIJ2J3J4J5M1RWXY/LB1D1

Departure

Time 2026-04-26 13:58
Airport Il Caravaggio International Airport (LIME)

Arrival

Time 2026-04-26 15:00
Airport Cologne Bonn Airport (EDDK)
Time Latitude Longitude Altitude Speed Heading
2026-04-26 13:30 45.67121 9.70348 800 ft 0 kts 195°
2026-04-26 13:50 45.67117 9.70346 800 ft 1 kts 195°
2026-04-26 13:50 45.67074 9.70330 799 ft 7 kts 187°
2026-04-26 13:51 45.67038 9.70359 799 ft 5 kts 127°
2026-04-26 13:51 45.67012 9.70440 798 ft 10 kts 107°
2026-04-26 13:51 45.66989 9.70585 799 ft 20 kts 104°
2026-04-26 13:51 45.66951 9.70795 798 ft 22 kts 105°
2026-04-26 13:52 45.66910 9.71016 796 ft 23 kts 104°
2026-04-26 13:52 45.66868 9.71247 792 ft 24 kts 105°
2026-04-26 13:52 45.66822 9.71493 787 ft 26 kts 104°
2026-04-26 13:52 45.66774 9.71747 780 ft 19 kts 105°
2026-04-26 13:53 45.66741 9.71927 779 ft 19 kts 103°
2026-04-26 13:53 45.66706 9.72119 776 ft 21 kts 105°
2026-04-26 13:53 45.66664 9.72332 771 ft 23 kts 104°
2026-04-26 13:53 45.66629 9.72519 770 ft 9 kts 105°
2026-04-26 13:54 45.66626 9.72539 770 ft 0 kts 105°
2026-04-26 13:54 45.66626 9.72540 770 ft 0 kts 105°
2026-04-26 13:55 45.66597 9.72626 770 ft 8 kts 150°
2026-04-26 13:55 45.66566 9.72638 769 ft 6 kts 184°
2026-04-26 13:55 45.66446 9.72557 770 ft 4 kts 264°
2026-04-26 13:56 45.66446 9.72530 770 ft 1 kts 275°
2026-04-26 13:56 45.66447 9.72522 770 ft 0 kts 281°
2026-04-26 13:57 45.66459 9.72440 770 ft 25 kts 283°
2026-04-26 13:57 45.66571 9.71846 777 ft 99 kts 285°
2026-04-26 13:57 45.66804 9.70586 796 ft 162 kts 285°
2026-04-26 13:57 45.67131 9.68811 945 ft 194 kts 283°
2026-04-26 13:58 45.67439 9.66973 1519 ft 193 kts 282°
2026-04-26 13:58 45.67448 9.65085 2099 ft 192 kts 247°
2026-04-26 13:58 45.66674 9.63581 2609 ft 194 kts 211°
2026-04-26 13:58 45.65380 9.62985 2860 ft 207 kts 182°
2026-04-26 13:59 45.63902 9.62500 3060 ft 230 kts 209°
2026-04-26 13:59 45.62666 9.60989 3473 ft 241 kts 227°
2026-04-26 13:59 45.61547 9.59141 3977 ft 250 kts 229°
2026-04-26 14:00 45.57223 9.55301 5707 ft 256 kts 182°
2026-04-26 14:00 45.55444 9.55252 6323 ft 257 kts 179°
2026-04-26 14:00 45.54257 9.55243 6693 ft 259 kts 180°
2026-04-26 14:01 45.51840 9.55175 7440 ft 263 kts 178°
2026-04-26 14:01 45.50066 9.55654 7930 ft 265 kts 155°
2026-04-26 14:01 45.48613 9.57221 8440 ft 265 kts 127°
2026-04-26 14:01 45.47831 9.59555 8958 ft 264 kts 102°
2026-04-26 14:02 45.47754 9.62107 9451 ft 264 kts 79°
2026-04-26 14:02 45.48416 9.64547 9928 ft 265 kts 55°
2026-04-26 14:02 45.49721 9.66384 10386 ft 267 kts 31°
2026-04-26 14:02 45.51372 9.67538 10865 ft 269 kts 23°
2026-04-26 14:03 45.53104 9.68592 11310 ft 272 kts 24°
2026-04-26 14:03 45.54977 9.69336 11409 ft 290 kts
2026-04-26 14:03 45.57027 9.68864 11542 ft 311 kts 336°
2026-04-26 14:03 45.58817 9.67134 11989 ft 323 kts 313°
2026-04-26 14:04 45.60168 9.64409 12153 ft 347 kts 300°
2026-04-26 14:04 45.61496 9.61391 12204 ft 373 kts 306°
2026-04-26 14:04 45.63148 9.58431 12474 ft 391 kts 311°
2026-04-26 14:04 45.64994 9.55546 13115 ft 399 kts 314°
2026-04-26 14:05 45.66926 9.52672 13865 ft 403 kts 314°
2026-04-26 14:05 45.68881 9.49816 14611 ft 406 kts 315°
2026-04-26 14:05 45.70005 9.48182 15022 ft 408 kts 315°
2026-04-26 14:06 45.70600 9.47317 15232 ft 409 kts 315°
2026-04-26 14:07 45.71102 9.46588 15402 ft 410 kts 315°
2026-04-26 14:07 45.72074 9.45179 15739 ft 412 kts 315°
2026-04-26 14:07 45.73667 9.42868 16272 ft 415 kts 315°
2026-04-26 14:08 45.73674 9.42859 16274 ft 415 kts 315°
2026-04-26 14:08 45.74929 9.41039 16691 ft 418 kts 315°
2026-04-26 14:10 45.76896 9.38191 17326 ft 421 kts 315°
2026-04-26 14:10 45.78956 9.35209 17987 ft 424 kts 315°
2026-04-26 14:10 45.81060 9.32164 18639 ft 428 kts 314°
2026-04-26 14:10 45.83162 9.29125 19277 ft 431 kts 314°
2026-04-26 14:11 45.87383 9.23023 20522 ft 438 kts 314°
2026-04-26 14:11 45.89534 9.19915 21111 ft 442 kts 314°
2026-04-26 14:11 45.91704 9.16783 21725 ft 445 kts 314°
2026-04-26 14:12 45.93881 9.13638 22309 ft 449 kts 314°
2026-04-26 14:12 45.96200 9.10559 22836 ft 454 kts 321°
2026-04-26 14:12 45.98848 9.08172 23372 ft 460 kts 332°
2026-04-26 14:12 46.01885 9.06527 23933 ft 466 kts 343°
2026-04-26 14:13 46.08323 9.05296 25070 ft 473 kts 353°
2026-04-26 14:13 46.11607 9.04865 25569 ft 476 kts 352°
2026-04-26 14:13 46.14938 9.04385 26086 ft 479 kts 352°
2026-04-26 14:14 46.18265 9.03898 26722 ft 478 kts 353°
2026-04-26 14:14 46.21590 9.03476 27452 ft 476 kts 353°
2026-04-26 14:14 46.24862 9.03062 28129 ft 473 kts 353°
2026-04-26 14:14 46.28129 9.02640 28782 ft 471 kts 352°
2026-04-26 14:15 46.31346 9.02217 29384 ft 469 kts 352°
2026-04-26 14:15 46.34582 9.01787 29853 ft 469 kts 352°
2026-04-26 14:15 46.37852 9.01348 30125 ft 472 kts 352°
2026-04-26 14:15 46.41113 9.00909 30518 ft 472 kts 352°
2026-04-26 14:16 46.44384 9.00469 30919 ft 473 kts 352°
2026-04-26 14:16 46.47651 9.00020 31227 ft 475 kts 352°
2026-04-26 14:16 46.50923 8.99570 31510 ft 477 kts 352°
2026-04-26 14:16 46.54225 8.99117 31783 ft 478 kts 352°
2026-04-26 14:17 46.57555 8.98662 32063 ft 477 kts 352°
2026-04-26 14:17 46.64124 8.97767 32152 ft 474 kts 352°
2026-04-26 14:18 46.70651 8.96876 32153 ft 474 kts 352°
2026-04-26 14:18 46.77233 8.95979 32156 ft 474 kts 352°
2026-04-26 14:19 46.83806 8.95079 32146 ft 475 kts 352°
2026-04-26 14:19 46.90350 8.94187 32143 ft 474 kts 351°
2026-04-26 14:20 46.96905 8.93296 32147 ft 475 kts 351°
2026-04-26 14:20 47.03493 8.92391 32138 ft 475 kts 352°
2026-04-26 14:21 47.10048 8.91500 32147 ft 475 kts 351°
2026-04-26 14:21 47.16631 8.90600 32146 ft 475 kts 352°
2026-04-26 14:22 47.23146 8.89710 32143 ft 476 kts 352°
2026-04-26 14:22 47.29801 8.89195 32128 ft 478 kts 356°
2026-04-26 14:23 47.36484 8.89459 32117 ft 478 kts 359°
2026-04-26 14:23 47.43079 8.89939 32181 ft 477 kts 360°
2026-04-26 14:24 47.49737 8.90431 32185 ft 477 kts 360°
2026-04-26 14:24 47.56358 8.90917 32190 ft 478 kts 360°
2026-04-26 14:25 47.62959 8.91400 32192 ft 478 kts 360°
2026-04-26 14:25 47.69619 8.91887 32186 ft 478 kts 360°
2026-04-26 14:26 47.76227 8.92373 32184 ft 478 kts 360°
2026-04-26 14:26 47.82838 8.92855 32187 ft 478 kts 360°
2026-04-26 14:27 47.89470 8.93340 32187 ft 478 kts 360°
2026-04-26 14:27 47.96102 8.93827 32186 ft 478 kts 360°
2026-04-26 14:28 48.02717 8.94312 32185 ft 478 kts 359°
2026-04-26 14:28 48.09378 8.95048 32184 ft 480 kts
2026-04-26 14:29 48.15984 8.95923 32191 ft 479 kts
2026-04-26 14:29 48.22594 8.96783 32191 ft 477 kts
2026-04-26 14:30 48.29214 8.97637 32193 ft 477 kts
2026-04-26 14:30 48.35792 8.98481 32196 ft 477 kts
2026-04-26 14:31 48.42435 8.99332 32193 ft 477 kts
2026-04-26 14:31 48.49006 9.00202 32199 ft 477 kts
2026-04-26 14:32 48.55589 9.01234 32204 ft 477 kts
2026-04-26 14:32 48.62205 9.02329 32200 ft 477 kts
2026-04-26 14:33 48.68770 9.02015 32209 ft 472 kts 345°
2026-04-26 14:33 48.75056 8.99547 32211 ft 471 kts 344°
2026-04-26 14:34 48.81474 8.97550 32213 ft 470 kts 347°
2026-04-26 14:34 48.87886 8.95817 32218 ft 470 kts 348°
2026-04-26 14:35 48.94302 8.94147 32224 ft 470 kts 348°
2026-04-26 14:35 49.00748 8.92487 32222 ft 470 kts 348°
2026-04-26 14:36 49.07166 8.90831 32221 ft 469 kts 348°
2026-04-26 14:36 49.13597 8.89167 32222 ft 469 kts 348°
2026-04-26 14:37 49.20039 8.87503 32226 ft 469 kts 348°
2026-04-26 14:37 49.26464 8.85841 32222 ft 468 kts 348°
2026-04-26 14:38 49.32879 8.84183 32219 ft 467 kts 348°
2026-04-26 14:38 49.39252 8.82255 32222 ft 466 kts 345°
2026-04-26 14:39 49.45500 8.79781 32227 ft 466 kts 342°
2026-04-26 14:39 49.51731 8.77068 32229 ft 465 kts 342°
2026-04-26 14:40 49.57910 8.74338 32232 ft 464 kts 342°
2026-04-26 14:40 49.64116 8.71587 32232 ft 463 kts 342°
2026-04-26 14:41 49.70300 8.68846 32237 ft 463 kts 342°
2026-04-26 14:41 49.76471 8.66114 32230 ft 463 kts 342°
2026-04-26 14:42 49.82631 8.63387 32232 ft 462 kts 342°
2026-04-26 14:42 49.88809 8.60649 32231 ft 462 kts 342°
2026-04-26 14:43 49.94986 8.57916 31975 ft 462 kts 343°
2026-04-26 14:43 49.98050 8.56560 31277 ft 463 kts 343°
2026-04-26 14:43 50.01172 8.55180 30582 ft 462 kts 343°
2026-04-26 14:43 50.04254 8.53815 29899 ft 460 kts 343°
2026-04-26 14:44 50.07278 8.52426 29211 ft 455 kts 340°
2026-04-26 14:44 50.10071 8.50896 28576 ft 449 kts 339°
2026-04-26 14:44 50.13131 8.49178 27865 ft 442 kts 339°
2026-04-26 14:44 50.15996 8.47598 27173 ft 437 kts 339°
2026-04-26 14:45 50.18840 8.46046 26475 ft 431 kts 340°
2026-04-26 14:45 50.20740 8.45014 26002 ft 427 kts 340°
2026-04-26 14:45 50.24426 8.43019 25068 ft 420 kts 340°
2026-04-26 14:45 50.27160 8.41447 24357 ft 416 kts 336°
2026-04-26 14:46 50.29771 8.39583 23671 ft 412 kts 332°
2026-04-26 14:46 50.32242 8.37377 23012 ft 408 kts 327°
2026-04-26 14:46 50.34638 8.34989 22362 ft 405 kts 326°
2026-04-26 14:46 50.36984 8.32641 21728 ft 402 kts 326°
2026-04-26 14:47 50.39325 8.30305 21104 ft 399 kts 326°
2026-04-26 14:47 50.41679 8.27959 20469 ft 395 kts 326°
2026-04-26 14:47 50.43985 8.25644 19846 ft 391 kts 326°
2026-04-26 14:47 50.46244 8.23370 19239 ft 387 kts 326°
2026-04-26 14:48 50.48495 8.21106 18628 ft 384 kts 326°
2026-04-26 14:48 50.50721 8.18868 18050 ft 380 kts 326°
2026-04-26 14:48 50.52933 8.16643 17437 ft 378 kts 326°
2026-04-26 14:48 50.55146 8.14421 16855 ft 375 kts 326°
2026-04-26 14:49 50.57297 8.12262 16282 ft 371 kts 326°
2026-04-26 14:49 50.59484 8.10069 15703 ft 368 kts 326°
2026-04-26 14:49 50.61604 8.07935 15144 ft 364 kts 326°
2026-04-26 14:49 50.63722 8.05777 14563 ft 359 kts 326°
2026-04-26 14:50 50.65791 8.03668 13988 ft 355 kts 326°
2026-04-26 14:50 50.67871 8.01550 13478 ft 349 kts 327°
2026-04-26 14:50 50.69870 7.99517 12983 ft 344 kts 327°
2026-04-26 14:50 50.71867 7.97492 12588 ft 335 kts 327°
2026-04-26 14:51 50.73794 7.95538 12205 ft 327 kts 327°
2026-04-26 14:51 50.75650 7.93560 11806 ft 318 kts 319°
2026-04-26 14:51 50.77023 7.90902 11392 ft 314 kts 296°
2026-04-26 14:51 50.77599 7.87625 10911 ft 312 kts 274°
2026-04-26 14:52 50.77494 7.84216 10426 ft 310 kts 265°
2026-04-26 14:52 50.77203 7.80855 9930 ft 307 kts 264°
2026-04-26 14:52 50.76885 7.77556 9428 ft 305 kts 263°
2026-04-26 14:52 50.76564 7.74273 8907 ft 300 kts 263°
2026-04-26 14:53 50.76257 7.71108 8406 ft 292 kts 263°
2026-04-26 14:53 50.75956 7.67998 7906 ft 282 kts 263°
2026-04-26 14:53 50.75671 7.65017 7409 ft 270 kts 263°
2026-04-26 14:53 50.75398 7.62142 6907 ft 260 kts 263°
2026-04-26 14:54 50.75139 7.59376 6421 ft 254 kts 263°
2026-04-26 14:54 50.74888 7.56640 5908 ft 249 kts 264°
2026-04-26 14:54 50.74644 7.53956 5413 ft 245 kts 264°
2026-04-26 14:54 50.74403 7.51322 4899 ft 239 kts 264°
2026-04-26 14:55 50.74172 7.48804 4409 ft 234 kts 264°
2026-04-26 14:55 50.73936 7.46242 3889 ft 236 kts 263°
2026-04-26 14:55 50.73706 7.43712 3459 ft 229 kts 264°
2026-04-26 14:55 50.73482 7.41261 3173 ft 220 kts 264°
2026-04-26 14:56 50.73266 7.38913 2971 ft 213 kts 264°
2026-04-26 14:56 50.73301 7.36621 3008 ft 213 kts 285°
2026-04-26 14:56 50.73756 7.34399 2983 ft 207 kts 296°
2026-04-26 14:56 50.74556 7.32609 2992 ft 194 kts 315°
2026-04-26 14:57 50.75504 7.31144 2933 ft 188 kts 318°
2026-04-26 14:57 50.76458 7.29750 2687 ft 187 kts 319°
2026-04-26 14:57 50.77387 7.28394 2448 ft 178 kts 319°
2026-04-26 14:57 50.78267 7.27105 2205 ft 168 kts 319°
2026-04-26 14:58 50.79131 7.25845 2033 ft 170 kts 319°
2026-04-26 14:58 50.80002 7.24579 1755 ft 169 kts 319°
2026-04-26 14:58 50.80864 7.23342 1565 ft 167 kts 319°
2026-04-26 14:58 50.81724 7.22106 1330 ft 169 kts 319°
2026-04-26 14:59 50.82583 7.20875 1140 ft 167 kts 319°
2026-04-26 14:59 50.83446 7.19639 886 ft 165 kts 315°
2026-04-26 14:59 50.84282 7.18460 677 ft 162 kts 316°
2026-04-26 14:59 50.84557 7.18046 628 ft 163 kts 314°
2026-04-26 15:00 50.85912 7.16050 311 ft 151 kts 315°
2026-04-26 15:00 50.86573 7.15058 280 ft 103 kts 316°
2026-04-26 15:00 50.86964 7.14482 267 ft 65 kts 317°
2026-04-26 15:00 50.87262 7.14012 249 ft 49 kts 298°
2026-04-26 15:01 50.87324 7.13681 242 ft 20 kts 280°
2026-04-26 15:01 50.87344 7.13502 242 ft 11 kts 280°
2026-04-26 15:01 50.87358 7.13374 242 ft 12 kts 281°
2026-04-26 15:01 50.87358 7.13317 242 ft 1 kts 233°
2026-04-26 15:02 50.87331 7.13273 242 ft 5 kts 219°
2026-04-26 15:02 50.87305 7.13242 242 ft 2 kts 210°
2026-04-26 15:02 50.87288 7.13226 242 ft 2 kts 213°
2026-04-26 15:02 50.87283 7.13219 242 ft 0 kts 227°